Weather in Novaya Malikla

Russia / Ulyanovsk Oblast     54°12′21″N   49°55′23″E
temp.,
°C
wind,
m/s
gust,
m/s
humid.,
%
clouds,
%
prec.,
mm/h
press.,
hPa
HPBL,
m
24 january, sun
sun2401:00−5s4896100 0.3 1022229
04:000s4898100 1.1 1021244
07:00+1sw49100100 0.8 1021243
10:00+1ssw510100100 0.9 1022333
13:00+1ssw511100100 0.0 1023351
16:00+1sw51197100 0.2 1024364
19:00+1ssw51192100 0.0 1025414
22:000ssw51192100 0.1 1026400
25 january, mon
mon2501:000ssw61295100 0.0 1027461
04:000ssw61293100 0.0 1028540
07:00−1ssw61093100 0.0 1028568
10:00−2ssw5995100 0.0 1029584
13:00−1ssw5992100 0.0 1029644
16:00−1s5891100 0.1 1029609
19:00−1s5992100 0.0 1029577
22:00−4s61092100 0.1 1028584
26 january, tue
tue2601:00−2s41093100 0.1 1028583
04:00−2s51192100 0.1 1028591
07:00−2s61188100 0.0 1027667
10:00−2s5991100 0.0 1027646
13:00−1s5991100 0.0 1027648
16:00−2s51091100 0.0 1026589
19:00−4sse61292100 0.0 1026508
22:00−5s51193100 0.1 1026621
27 january, wed
wed2701:00−3s51192100 0.1 1026639
04:00−4sse51193100 0.1 1025368
07:00−5s51094100 0.1 1025459
10:00−5s51094100 0.2 1025397
13:00−4s5893100 0.1 1026390
16:00−5sse5893100 0.1 1025327
19:00−8sse4109397 0.0 1025259
22:00−9sse4109298 0.0 1025264
28 january, thu
thu2801:00−8sse41191100 0.0 1024293
04:00−8sse41190100 0.0 1023308
07:00−8sse41190100 0.0 1023337
10:00−8sse51289100 0.0 1022375
13:00−7sse51188100 0.0 1021415
16:00−7se41189100 0.0 1019404
19:00−8se41091100 0.0 1019290
22:00−8sse41290100 0.0 1018370